Startpagina
METAR-TAF:

METAR-TAF

Vliegvelden :

Vliegbasis Deelen

Arnhem, Nederland

breedte: 52-04N, lengte: 005-53E, hoogte: 48 m

Actueel weer

Dit bericht is 24 minuten geleden gemaakt, om 23:55 UTC
Wind 1 kt uit het noorden
Temperatuur 9°C
Vochtigheid 93%
Druk 1026 hPa
Zicht 10 km of meer

METAR: EHDL 122355Z AUTO 35001KT 9999 NCD 09/08 Q1026 BLU

Tijdstip: 02:19 (00:19 UTC)


TAF: ontbreekt

Waarnemingen en weersverwachtingen van meer dan 4000 vliegvelden (METAR en TAF).

De beschikbare stations zijn de gele en rode punten op de kaart.

Ga met uw muis naar het station om de naam te zien.

Klik dan om waarnemingen en weersverwachtingen te zien.

kaart wijzigen: klik op de groene knoppen met een zwart kruis om in te zoomen, op de groene knop met een streepje om uit te zoomen of op de groene pijlen voor aangrenzende kaarten.


METAR-TAF: